RH
42 33 39 42 45 40 48 25 27 32 30 27 23 21 25 29 29 27 26 28 31 32 34 36 37 35 33
49 45 41 42 45 53 37 32 35 39 31 30 30 32 35 36 35 35 36 38 38 39 40 41 40 39 39
70 51 41 45 53 50 37 55 58 35 35 36 37 39 39 40 40 39 41 43 44 43 42 41 40 40 41
54 45 50 59 60 47 74 58 41 39 38 41 42 40 38 35 39 40 40 40 39 37 35 33 33 32 34
57 66 72 59 73 91 60 53 48 42 44 44 43 40 36 35 36 38 38 34 32 31 29 25 23 24 25
78 85 77 84 97 71 58 67 46 48 49 48 40 37 36 37 36 34 31 31 33 33 28 23 22 20 18
81 77 95 98 99 76 90 55 55 56 58 52 41 36 32 30 31 32 34 34 32 31 27 26 23 18 14
100 99 97 99 99 97 67 62 64 65 64 52 44 38 36 36 33 33 33 32 29 29 30 32 30 20 16
100 100 99 99 100 84 84 79 77 75 69 57 53 45 42 42 39 36 34 36 37 40 43 42 35 23 18
100 100 99 100 98 100 100 93 93 86 77 67 62 58 55 52 47 44 43 46 49 54 61 61 52 39 24
100 99 99 100 99 100 100 100 94 85 79 79 78 76 72 65 64 61 58 58 61 65 72 79 68 60 53
100 99 100 100 100 100 100 98 97 89 87 86 87 90 92 91 90 83 78 79 80 77 76 85 92 83 66
100 100 100 100 100 100 100 97 100 99 94 87 90 96 98 96 92 91 91 91 88 87 89 90 90 81 73
100 100 99 100 100 100 100 100 100 97 99 95 92 98 100 100 97 88 91 86 85 94 91 85 84 77 41
100 100 100 98 98 100 100 94 93 94 99 100 99 100 100 99 100 93 94 91 83 80 84 85 71 34 47
100 99 100 100 100 100 94 93 96 99 99 96 97 96 98 91 90 89 90 83 81 78 63 44 52 70 76
99 97 97 97 99 100 100 100 100 97 95 93 89 92 92 87 86 81 72 55 38 40 50 59 67 78 81
Wind_Speed
39 39 39 39 39 35 34 31 29 28 28 26 24 22 21 22 22 21 22 22 22 23 23 22 22 21 21
40 40 41 41 37 33 32 28 27 27 26 25 24 24 24 22 22 21 22 22 23 23 23 23 23 23 23
43 43 39 36 32 32 27 26 27 27 25 25 24 25 24 23 23 24 24 24 23 23 23 23 23 24 24
41 39 35 33 32 29 28 27 28 24 25 24 25 25 24 25 25 24 25 25 24 23 23 24 25 25 26
34 32 35 32 30 30 27 26 26 25 23 25 24 24 25 25 25 25 25 24 24 24 24 25 27 28 28
38 38 35 34 28 28 25 25 26 25 24 26 24 24 24 24 25 25 24 25 26 26 26 28 28 29 27
34 34 36 28 27 26 25 26 26 25 25 25 25 24 23 25 26 25 26 26 26 27 28 29 30 29 30
38 31 29 29 27 24 26 26 26 25 26 25 26 25 25 26 28 27 28 28 28 30 31 33 33 33 33
30 31 29 26 23 25 26 27 25 25 26 26 27 26 28 28 29 29 29 30 31 34 35 36 35 36 38
32 29 23 22 24 25 25 24 24 25 27 28 28 29 29 30 30 31 31 32 34 36 38 38 37 35 38
29 23 23 26 25 24 25 24 25 27 28 30 30 31 31 31 31 33 34 34 36 37 39 39 37 35 36
25 24 26 25 25 27 25 25 27 28 29 30 32 32 33 34 34 35 35 37 39 39 40 40 39 39 39
25 26 26 27 28 27 28 30 30 30 31 33 33 34 35 35 35 36 37 38 39 40 41 41 40 41 41
27 28 28 29 30 30 32 32 33 34 34 35 35 36 35 35 37 38 39 39 40 40 40 40 41 43 41
26 28 29 30 32 33 34 35 36 37 37 37 35 33 34 37 39 39 40 40 38 37 40 42 42 40 41
30 30 31 32 33 35 36 37 38 36 34 33 33 34 36 37 38 39 38 37 38 39 39 40 40 43 45
34 35 35 35 35 36 35 34 34 34 33 33 34 36 37 38 36 38 41 38 37 37 38 40 44 46 47
Wind_Direction
282 283 283 283 288 285 290 282 283 285 287 288 289 287 287 287 289 289 287 288 290 291 291 293 292 292 292
279 279 279 283 282 286 279 277 281 283 282 285 286 285 284 287 288 286 285 285 286 289 291 290 290 290 289
275 279 281 279 279 284 272 278 278 275 281 284 282 283 285 286 285 285 285 287 288 286 287 288 289 291 291
277 276 271 274 275 267 272 272 270 275 279 280 283 284 285 285 286 288 290 290 289 290 291 292 293 293 290
272 271 277 264 264 265 266 265 269 271 277 280 281 284 286 286 286 288 291 290 289 290 291 293 293 291 287
283 276 264 258 260 262 259 264 266 269 275 278 279 281 283 285 288 291 291 291 290 288 289 294 294 291 282
268 258 261 254 257 254 261 262 264 269 275 279 278 281 283 286 288 289 288 288 287 287 289 292 291 285 276
258 259 248 254 253 258 259 262 266 273 278 280 275 279 283 284 286 287 287 286 286 287 288 290 286 280 275
251 248 247 251 254 257 261 264 270 278 280 278 276 280 283 284 285 287 286 287 287 289 289 288 286 278 274
249 248 249 253 255 259 262 266 274 280 280 278 277 279 283 284 285 286 286 286 287 290 290 288 286 280 278
248 244 250 254 257 258 261 269 277 278 280 281 282 282 283 284 285 287 288 288 290 290 290 286 282 284 285
239 246 253 255 255 259 264 272 273 278 282 282 281 283 284 285 285 285 288 291 291 291 291 287 284 284 286
244 250 253 256 257 262 267 269 271 277 281 283 284 284 284 287 288 288 290 292 291 291 289 287 286 287 287
251 252 257 256 259 264 271 271 273 277 281 286 285 287 283 287 290 292 291 291 292 291 288 287 288 290 289
256 254 254 259 264 270 273 275 275 279 283 285 286 285 285 287 290 291 291 293 293 291 290 290 291 290 290
253 256 261 265 269 272 273 274 279 281 282 284 284 285 288 289 290 292 292 294 294 293 292 291 293 294 293
260 262 263 264 267 272 275 277 278 280 282 282 284 288 289 290 292 290 293 293 292 292 292 293 294 298 298